NSZ8503 ESSA-EFHK

Flight info

Callsign NSZ8503
Flight time 0h 43m
Altitude 29000
Route TOVRI N851 RIKUM DCT RIRIP Y364 LAKUT
Aircraft B738/M-SDE2E3FGHIRWXY/LB1

Departure

Time 2026-04-23 17:20
Airport Stockholm-Arlanda Airport (ESSA)

Arrival

Time 2026-04-23 18:04
Airport Helsinki Vantaa Airport (EFHK)
Time Latitude Longitude Altitude Speed Heading
2026-04-23 17:01 59.65332 17.93146 111 ft 0 kts 251°
2026-04-23 17:14 59.65332 17.93150 111 ft 3 kts 251°
2026-04-23 17:14 59.65341 17.93199 109 ft 4 kts 250°
2026-04-23 17:15 59.65347 17.93248 109 ft 4 kts 281°
2026-04-23 17:15 59.65336 17.93289 109 ft 4 kts 334°
2026-04-23 17:15 59.65328 17.93295 111 ft 0 kts 346°
2026-04-23 17:17 59.65336 17.93291 109 ft 4 kts 346°
2026-04-23 17:18 59.65454 17.93219 110 ft 13 kts 329°
2026-04-23 17:18 59.65538 17.93161 109 ft 11 kts 346°
2026-04-23 17:18 59.65605 17.93220 108 ft 13 kts 66°
2026-04-23 17:19 59.65676 17.93395 106 ft 19 kts 45°
2026-04-23 17:19 59.65776 17.93601 113 ft 20 kts 45°
2026-04-23 17:19 59.65868 17.93824 115 ft 25 kts 74°
2026-04-23 17:19 59.65950 17.94465 121 ft 81 kts 76°
2026-04-23 17:20 59.66144 17.95983 124 ft 143 kts 76°
2026-04-23 17:20 59.66770 18.00499 985 ft 178 kts 71°
2026-04-23 17:21 59.67372 18.05346 2436 ft 195 kts 72°
2026-04-23 17:21 59.67680 18.08156 2727 ft 222 kts 73°
2026-04-23 17:21 59.68383 18.14746 3584 ft 262 kts 73°
2026-04-23 17:22 59.68760 18.18302 4408 ft 267 kts 72°
2026-04-23 17:22 59.69541 18.25589 6056 ft 274 kts 71°
2026-04-23 17:23 59.70346 18.33054 7694 ft 278 kts 72°
2026-04-23 17:23 59.70745 18.36760 8540 ft 280 kts 72°
2026-04-23 17:23 59.71570 18.44422 10141 ft 286 kts 72°
2026-04-23 17:24 59.72002 18.48398 10459 ft 307 kts 72°
2026-04-23 17:24 59.72466 18.52685 10669 ft 329 kts 72°
2026-04-23 17:24 59.73434 18.61805 11885 ft 344 kts 72°
2026-04-23 17:25 59.74419 18.71141 13446 ft 350 kts 72°
2026-04-23 17:25 59.74956 18.75865 14159 ft 351 kts 66°
2026-04-23 17:26 59.77425 18.83908 15695 ft 341 kts 48°
2026-04-23 17:26 59.80165 18.91610 17188 ft 347 kts 48°
2026-04-23 17:27 59.82941 18.99536 18620 ft 352 kts 48°
2026-04-23 17:27 59.84335 19.03554 19232 ft 355 kts 48°
2026-04-23 17:27 59.85738 19.07611 19851 ft 357 kts 48°
2026-04-23 17:27 59.87170 19.11765 20473 ft 360 kts 48°
2026-04-23 17:28 59.88591 19.15895 21071 ft 363 kts 48°
2026-04-23 17:28 59.90002 19.20006 21654 ft 366 kts 47°
2026-04-23 17:28 59.91442 19.24209 22234 ft 369 kts 47°
2026-04-23 17:28 59.92892 19.28447 22842 ft 372 kts 48°
2026-04-23 17:29 59.94144 19.33049 23451 ft 384 kts 58°
2026-04-23 17:29 59.94980 19.38202 23961 ft 396 kts 66°
2026-04-23 17:29 59.96299 19.48836 25166 ft 393 kts 66°
2026-04-23 17:30 59.96733 19.52408 25586 ft 392 kts 66°
2026-04-23 17:30 59.98236 19.64647 26938 ft 389 kts 66°
2026-04-23 17:30 59.98884 19.69882 27527 ft 388 kts 65°
2026-04-23 17:31 59.99530 19.75096 28126 ft 386 kts 65°
2026-04-23 17:31 60.00175 19.80303 28711 ft 385 kts 65°
2026-04-23 17:31 60.00821 19.85510 28966 ft 388 kts 65°
2026-04-23 17:31 60.01466 19.90733 28955 ft 385 kts 65°
2026-04-23 17:32 60.02741 20.01127 28976 ft 385 kts 65°
2026-04-23 17:32 60.04032 20.11654 28985 ft 399 kts 66°
2026-04-23 17:33 60.05383 20.22708 28982 ft 418 kts 66°
2026-04-23 17:33 60.06772 20.34256 29009 ft 433 kts 66°
2026-04-23 17:34 60.08153 20.45977 28959 ft 430 kts 67°
2026-04-23 17:35 60.10185 20.63361 28954 ft 425 kts 66°
2026-04-23 17:35 60.12199 20.80668 28952 ft 425 kts 67°
2026-04-23 17:36 60.13532 20.92235 28956 ft 426 kts 67°
2026-04-23 17:36 60.14859 21.03851 28950 ft 428 kts 67°
2026-04-23 17:37 60.16180 21.15514 28996 ft 429 kts 67°
2026-04-23 17:38 60.18118 21.32929 28926 ft 410 kts 67°
2026-04-23 17:38 60.18712 21.38409 28936 ft 393 kts 66°
2026-04-23 17:38 60.19284 21.43684 28935 ft 378 kts 65°
2026-04-23 17:38 60.19837 21.48764 28754 ft 368 kts 65°
2026-04-23 17:39 60.20384 21.53736 28524 ft 361 kts 65°
2026-04-23 17:39 60.20924 21.58632 28160 ft 357 kts 65°
2026-04-23 17:39 60.21457 21.63470 27806 ft 353 kts 65°
2026-04-23 17:39 60.21985 21.68278 27445 ft 350 kts 65°
2026-04-23 17:40 60.22504 21.73038 27083 ft 347 kts 65°
2026-04-23 17:40 60.23015 21.77761 26748 ft 344 kts 65°
2026-04-23 17:40 60.23521 21.82451 26398 ft 342 kts 65°
2026-04-23 17:40 60.24021 21.87114 26047 ft 339 kts 65°
2026-04-23 17:41 60.24514 21.91736 25759 ft 337 kts 65°
2026-04-23 17:41 60.25492 22.00933 25036 ft 334 kts 65°
2026-04-23 17:41 60.25975 22.05502 24691 ft 333 kts 65°
2026-04-23 17:42 60.26928 22.14587 24021 ft 330 kts 65°
2026-04-23 17:42 60.27400 22.19101 23679 ft 329 kts 65°
2026-04-23 17:42 60.27868 22.23605 23308 ft 328 kts 66°
2026-04-23 17:43 60.28333 22.28094 22932 ft 326 kts 66°
2026-04-23 17:43 60.28794 22.32561 22565 ft 324 kts 66°
2026-04-23 17:43 60.29249 22.36994 22227 ft 322 kts 66°
2026-04-23 17:43 60.29700 22.41402 21895 ft 320 kts 66°
2026-04-23 17:44 60.30148 22.45784 21562 ft 318 kts 66°
2026-04-23 17:44 60.30447 22.48728 21347 ft 316 kts 66°
2026-04-23 17:44 60.31324 22.57371 20719 ft 313 kts 66°
2026-04-23 17:45 60.31756 22.61655 20389 ft 311 kts 66°
2026-04-23 17:45 60.32607 22.70121 19758 ft 309 kts 66°
2026-04-23 17:45 60.33030 22.74361 19473 ft 308 kts 66°
2026-04-23 17:46 60.33872 22.82829 18817 ft 307 kts 66°
2026-04-23 17:46 60.34289 22.87046 18505 ft 306 kts 67°
2026-04-23 17:46 60.34703 22.91249 18176 ft 305 kts 67°
2026-04-23 17:47 60.35116 22.95453 17807 ft 304 kts 67°
2026-04-23 17:47 60.35525 22.99637 17458 ft 303 kts 68°
2026-04-23 17:47 60.36333 23.07951 16838 ft 300 kts 68°
2026-04-23 17:48 60.36732 23.12079 16534 ft 299 kts 68°
2026-04-23 17:48 60.37128 23.16190 16225 ft 297 kts 68°
2026-04-23 17:48 60.37521 23.20282 15903 ft 296 kts 68°
2026-04-23 17:48 60.37911 23.24351 15599 ft 294 kts 68°
2026-04-23 17:49 60.38297 23.28400 15294 ft 293 kts 69°
2026-04-23 17:49 60.38681 23.32431 15001 ft 292 kts 69°
2026-04-23 17:49 60.39062 23.36450 14704 ft 290 kts 69°
2026-04-23 17:49 60.39441 23.40454 14397 ft 289 kts 69°
2026-04-23 17:50 60.39818 23.44452 14019 ft 291 kts 69°
2026-04-23 17:50 60.40596 23.52694 13070 ft 301 kts 70°
2026-04-23 17:50 60.40978 23.56824 12799 ft 297 kts 70°
2026-04-23 17:51 60.41356 23.60916 12464 ft 296 kts 71°
2026-04-23 17:51 60.41732 23.64995 12138 ft 294 kts 71°
2026-04-23 17:51 60.42479 23.73103 11489 ft 292 kts 71°
2026-04-23 17:52 60.42849 23.77132 11161 ft 291 kts 71°
2026-04-23 17:52 60.43577 23.85140 10527 ft 288 kts 72°
2026-04-23 17:52 60.43920 23.89138 10209 ft 288 kts 75°
2026-04-23 17:53 60.44382 23.97188 9589 ft 287 kts 76°
2026-04-23 17:53 60.44604 24.01195 9258 ft 286 kts 77°
2026-04-23 17:53 60.44806 24.05189 8941 ft 286 kts 81°
2026-04-23 17:54 60.44762 24.09234 8632 ft 288 kts 87°
2026-04-23 17:54 60.44616 24.13275 8319 ft 287 kts 88°
2026-04-23 17:54 60.44320 24.21291 7689 ft 284 kts 88°
2026-04-23 17:55 60.44061 24.29200 7126 ft 280 kts 88°
2026-04-23 17:55 60.43941 24.33132 6864 ft 277 kts 89°
2026-04-23 17:55 60.43797 24.37000 6569 ft 277 kts 96°
2026-04-23 17:56 60.42993 24.40555 6234 ft 284 kts 130°
2026-04-23 17:56 60.39434 24.43646 5632 ft 284 kts 169°
2026-04-23 17:56 60.37495 24.44399 5308 ft 283 kts 170°
2026-04-23 17:57 60.35563 24.45130 5007 ft 282 kts 170°
2026-04-23 17:57 60.33631 24.45859 4697 ft 282 kts 170°
2026-04-23 17:57 60.29804 24.47308 4129 ft 278 kts 170°
2026-04-23 17:58 60.27924 24.48154 3842 ft 276 kts 158°
2026-04-23 17:58 60.26356 24.50190 3785 ft 263 kts 139°
2026-04-23 17:58 60.24953 24.52464 3705 ft 255 kts 140°
2026-04-23 17:58 60.23592 24.54655 3621 ft 246 kts 140°
2026-04-23 17:59 60.22269 24.56785 3452 ft 242 kts 140°
2026-04-23 17:59 60.21132 24.59211 3181 ft 238 kts 112°
2026-04-23 17:59 60.20888 24.62378 2949 ft 227 kts 80°
2026-04-23 17:59 60.21023 24.65477 2871 ft 220 kts 91°
2026-04-23 18:00 60.20722 24.68459 2800 ft 213 kts 95°
2026-04-23 18:00 60.20917 24.71204 2688 ft 191 kts 52°
2026-04-23 18:00 60.21900 24.72629 2600 ft 169 kts 14°
2026-04-23 18:00 60.22970 24.73493 2510 ft 165 kts 25°
2026-04-23 18:01 60.23932 24.74807 2288 ft 167 kts 36°
2026-04-23 18:01 60.24791 24.76300 2055 ft 158 kts 38°
2026-04-23 18:01 60.25552 24.77782 1880 ft 148 kts 42°
2026-04-23 18:01 60.26245 24.79269 1666 ft 144 kts 43°
2026-04-23 18:02 60.26913 24.80735 1459 ft 141 kts 44°
2026-04-23 18:02 60.27579 24.82204 1273 ft 143 kts 43°
2026-04-23 18:02 60.28265 24.83713 1053 ft 148 kts 45°
2026-04-23 18:02 60.28957 24.85241 849 ft 151 kts 45°
2026-04-23 18:03 60.29661 24.86809 628 ft 150 kts 46°
2026-04-23 18:03 60.30351 24.88324 434 ft 144 kts 44°
2026-04-23 18:03 60.31032 24.89804 262 ft 144 kts 45°
2026-04-23 18:03 60.31706 24.91294 148 ft 137 kts 46°
2026-04-23 18:04 60.32223 24.92426 164 ft 79 kts 47°
2026-04-23 18:04 60.32447 24.92920 172 ft 17 kts 49°
2026-04-23 18:04 60.32513 24.93068 175 ft 18 kts 49°
2026-04-23 18:04 60.32614 24.93289 178 ft 25 kts 47°
2026-04-23 18:05 60.32740 24.93563 180 ft 29 kts 47°
2026-04-23 18:05 60.32875 24.93862 182 ft 31 kts 47°
2026-04-23 18:05 60.33012 24.94165 185 ft 26 kts 48°
2026-04-23 18:05 60.33049 24.94467 186 ft 20 kts 91°
2026-04-23 18:06 60.33046 24.94606 183 ft 4 kts 97°
2026-04-23 18:06 60.32996 24.94725 178 ft 14 kts 133°
2026-04-23 18:06 60.32954 24.94800 176 ft 1 kts 138°
2026-04-23 18:06 60.32949 24.94812 176 ft 3 kts 135°
2026-04-23 18:07 60.32941 24.94830 176 ft 1 kts 124°
2026-04-23 18:07 60.32957 24.94859 176 ft 9 kts 34°
2026-04-23 18:07 60.33026 24.94991 175 ft 16 kts 47°
2026-04-23 18:07 60.33110 24.95172 176 ft 19 kts 46°
2026-04-23 18:08 60.33170 24.95304 178 ft 20 kts 49°
2026-04-23 18:08 60.33147 24.95630 179 ft 23 kts 137°
2026-04-23 18:08 60.33031 24.95815 180 ft 20 kts 149°
2026-04-23 18:08 60.32912 24.95956 175 ft 21 kts 149°
2026-04-23 18:09 60.32783 24.96107 172 ft 23 kts 149°
2026-04-23 18:09 60.32639 24.96277 171 ft 23 kts 150°
2026-04-23 18:09 60.32497 24.96443 173 ft 25 kts 150°
2026-04-23 18:09 60.32384 24.96572 173 ft 15 kts 150°
2026-04-23 18:10 60.32306 24.96663 167 ft 14 kts 149°
2026-04-23 18:10 60.32207 24.96778 165 ft 15 kts 149°
2026-04-23 18:10 60.32115 24.96885 165 ft 18 kts 151°
2026-04-23 18:10 60.31997 24.97017 165 ft 19 kts 153°
2026-04-23 18:11 60.31892 24.97127 165 ft 15 kts 153°
2026-04-23 18:11 60.31819 24.97181 165 ft 9 kts 202°
2026-04-23 18:11 60.31790 24.97097 165 ft 5 kts 242°
2026-04-23 18:11 60.31786 24.97083 165 ft 0 kts 242°